Find Starlink 3956

NORAD ID: 52560 Int'l Des: 2022-051 Owner: SPXS Country: US Constellation: starlink operational
LEOCIRCULAR

現在のビュー

3D地球を読み込み中...

About Starlink 3956

Starlink 3956 (NORAD 52560) is a starlink constellation satellite (v1.5) launched May 13, 2022 by SPXS of US. It operates in LEO, CIRCULAR orbit with a mass of 297.00 kg.

Starlink 3956について

説明を読み込み中...

次回通過

Passes for default location (London). Set your location on the main map for personalized predictions.

高度履歴

Loading altitude history...

軌道要素

1 52560U 22051AD 26168.93591330 .00000131 00000-0 26299-4 0 9991
2 52560 53.1596 28.9957 0001205 89.6834 270.4295 15.08834349226717
Epoch: Jun 17, 2026 • Age: 19 hours

現在のステータス

高度 541.1 km
速度 7.60 km/s
衛星直下点 31.06°N, 120.65°W
打ち上げ日 May 13, 2022
運用期間 4 years
タイプ internet

技術仕様

分類 Payload
質量 297.00 kg
乾燥質量 275.00 kg
総質量 297.00 kg
長さ 0.20 m
直径 2.80 m
スパン 9.00 m
形状 Box + pan
製造者 SPXS
バスタイプ Starlink
フェーズステータス In Orbit
所有者/国 SPXS/US

Most Searched